Powrót do katalogu

DELTA 1 DEB

YO

AktywnyLEO
NORAD 227·DEBRIS·🇺🇸 United States

Wystrzelony Feb 8, 1962 z Cape Canaveral Space Force Station

Loading…

Następne Przeloty (najbliższe 24 godziny)

TLE

Starzejące sięSource: Space-Track

Epoka: Sep 12, 2026, 12:49 UTC

1 00227U 62002B   26255.53446929 -.00000010  00000-0  47523-4 0  9990
2 00227  48.1474 316.8186 0126533  59.8134 301.5225 14.40826034356895

Śledź DELTA 1 DEB w czasie rzeczywistym z AllMySat

Download on the App Store